Regional Weather Roundup
Issued by NWS

Home | Current Version | Previous Version | Text Only | Print | Product List | Glossary On
Versions: 1 2 3 4 5 6 7 8 9 10 11 12 13 14 15 16 17 18 19 20 21 22 23 24 25 26 27 28 29 30 31 32 33 34 35 36 37 38 39 40 41 42 43 44 45 46 47 48 49 50
000
ASUS43 KIND 310809
RWRIN

WEATHER ROUNDUP FOR INDIANA
NATIONAL WEATHER SERVICE INDIANAPOLIS IN
400 AM EDT MON AUG 31 2015

NOTE: "FAIR" INDICATES FEW OR NO CLOUDS BELOW 12,000 FEET WITH NO
SIGNIFICANT WEATHER AND/OR OBSTRUCTIONS TO VISIBILITY.

* - STATION DOES NOT REPORT WEATHER SUCH AS PRECIPITATION OR FOG.

+ - STATION NOT QUALITY CONTROLLED BY THE NATIONAL WEATHER SERVICE.
    USE DATA WITH CAUTION...ESPECIALLY DEWPOINT AND RELATIVE
    HUMIDITY OBSERVATIONS.

INZ001>003-010>013-019-020-310900-
NORTHWEST INDIANA

CITY           SKY/WX    TMP DP  RH WIND       PRES   REMARKS
GARY /AIRPORT/ FOG       60  58  94 CALM      30.04S VSB 1/4
KNOX *+        MOCLDY    59  59 100 CALM      30.03S
LA PORTE +     FOG      N/A N/A N/A CALM      30.06S VSB 1/4
MICHIGAN CITY+ FOG       61  61 100 CALM      30.04F VSB 3/4
MONTICELLO +   CLEAR     69  69 100 CALM      30.03S
RENSSELAER +   FOG       63  63 100 CALM      30.04S VSB 1/4
VALPARAISO     FOG       62  61  96 NE3       30.05S VSB 1/4

$$

LMZ046-743>745-310900-
SOUTHERN LAKE MICHIGAN

STATION/POSITION TIME  TEMP    WIND        PRES    WAVE
                       AIR SEA DIR/SP/G            HT
                 (UTC) (F)     (DEG/KT/KT) (MB)    (FT)
BURNS HARBOR     0700   68     180/  3/  5 1017.6S
MICHIGAN CITY    0700   65     110/  5/  6   N/A
5NW MICH CITY    0800   68 71  170/  4/  6   N/A     0

$$

INZ004-005-014>016-021>024-310900-
NORTH CENTRAL INDIANA

CITY           SKY/WX    TMP DP  RH WIND       PRES   REMARKS
GOSHEN         FOG       63  61  93 CALM      30.05S VSB 1/4
LOGANSPORT +   CLEAR     63  61  94 CALM      30.05S FOG
PERU/GRISSOM   CLEAR     67  64  93 S3        30.04S
ROCHESTER +    CLOUDY    64  64 100 CALM      30.05S FOG
SOUTH BEND     PTCLDY    60  59  96 CALM      30.05F FOG
WARSAW +       FOG       63  63 100 CALM      30.05S VSB 1/4

$$

INZ006>009-017-018-025>027-310900-
NORTHEAST INDIANA

CITY           SKY/WX    TMP DP  RH WIND       PRES   REMARKS
ANGOLA *+      CLOUDY    64  63  94 CALM      30.05S VSB 0
AUBURN +       FOG       64  63  94 CALM      30.06R VSB 1/4
FORT WAYNE     PTCLDY    65  64  97 CALM      30.06S FOG
HUNTINGTON +   PTCLDY    67  63  89 CALM      30.05S FOG

$$

INZ028-029-035-036-043>045-051>053-310900-
WEST CENTRAL INDIANA

CITY           SKY/WX    TMP DP  RH WIND       PRES   REMARKS
CRAWFORDSVL +  CLEAR     61  61 100 CALM      30.05F FOG
GREENCASTLE +  CLEAR     64  61  88 CALM      30.07S FOG
LAFAYETTE      CLEAR     67  66  97 CALM      30.03S FOG
TERRE HAUTE    CLEAR     65  64  97 SE3       30.05S FOG

$$

INZ030>032-037>040-046>048-054>057-064-065-310900-
CENTRAL INDIANA

CITY           SKY/WX    TMP DP  RH WIND       PRES   REMARKS
FRANKFORT +    CLEAR    N/A N/A N/A CALM      30.06F FOG
GREENWOOD *+   CLEAR     68  64  88 CALM      30.07S
INDIANAPOLIS   MOCLDY    68  65  90 S5        30.05S
-EAGLE CREEK   PTCLDY    69  67  93 CALM      30.05S
KOKOMO *+      CLEAR     64  61  88 S5        30.05F
MARION +       CLEAR     64  58  83 CALM      30.06S
MT COMFORT *+  CLEAR     66 N/A N/A S5        30.07S
SHELBYVILLE    CLEAR     68  64  87 S5        30.06S

$$

INZ033-034-041-042-049-050-058-059-310900-
EAST CENTRAL INDIANA

CITY           SKY/WX    TMP DP  RH WIND       PRES   REMARKS
MUNCIE         CLEAR     68  65  90 S5        30.06S

$$

INZ060-061-067>069-081>083-085>088-310900-
SOUTHWEST INDIANA

CITY           SKY/WX    TMP DP  RH WIND       PRES   REMARKS
EVANSVILLE     CLEAR     68  66  93 CALM      30.06F
HUNTINGBURG *+ CLEAR     68  64  88 S5        30.07S
WASHINGTON +   CLEAR     67  63  87 SE3       30.05S FOG

$$

INZ062-063-066-070>080-084-089>092-310900-
SOUTH CENTRAL AND SOUTHEAST INDIANA

CITY           SKY/WX    TMP DP  RH WIND       PRES   REMARKS
BLOOMINGTON    CLEAR     65  63  93 CALM      30.06F FOG
MADISON *+     PTCLDY    64  63  94 CALM      30.10S
NORTH VERNON + PTCLDY    68  68 100 CALM      30.08S
SEYMOUR +      PTCLDY    64  64 100 CALM      30.06S FOG

$$




USA.gov is the U.S. government's official web portal to all federal, state and local government web resources and services.